Location: Home
(42.5358°N, 72.7383°W)
Time: 12:17:21
(UTC-05:00)

Tiros 1 - Pass Details

Date: 08 December 2021
Orbit: 629 x 664 km, 48.4° (Epoch: 26 January)

Event Time Altitude Azimuth Distance (km) Brightness Sun altitude
Rises 23:47:21 0° 285° (WNW) 2,955 - -70.3°
Reaches altitude 10° 23:50:32 10° 263° (W) 2,049 - -70.2°
Maximum altitude 23:53:16 15° 227° (SW) 1,723 - -70.2°
Drops below altitude 10° 23:55:59 10° 192° (SSW) 2,054 - -70.1°
Sets 23:59:12 0° 170° (S) 2,967 - -70.0°
